{"data":{"norad_id":44857,"intl_designator":"2019-089F","name":"RISAT-2BR1","alt_names":[],"object_type":"PAYLOAD","status":"ACTIVE","operator":null,"country":"IND","launch_date":"2019-12-11","launch_site_code":"SRILR","launch_vehicle":null,"mission":null,"orbit_class":"UNKNOWN","rcs_meters":null,"size_class":null,"mass_kg":null,"dimensions":null,"purposes":[],"wikipedia_slug":null,"has_3d_model":false,"image_url":null,"decayed_at":null,"tle_current":{"epoch":"2026-05-25T00:19:11.995392Z","epoch_age_seconds":67748,"freshness":"FRESH","line1":"1 44857U 19089F   26145.01333328  .00002444  00000+0  19104-3 0  9997","line2":"2 44857  36.9599 249.1220 0012402 340.1078  19.9179 15.01527890353716","mean_motion":15.0152789,"eccentricity":0.0012402,"inclination_deg":36.9599,"raan_deg":249.122,"arg_perigee_deg":340.1078,"mean_anomaly_deg":19.9179,"bstar":0.00019104,"rev_number":35371,"period_min":95.902314541757,"perigee_km":553.57684902405,"apogee_km":570.79162181638,"semimajor_km":6940.3212354202,"source":"CELESTRAK","updated_at":"2026-05-25T13:37:56.035614Z"}}}